Home > Weather > Toruń > Past weeks

Flag for Poland Weather for the Past 2 Weeks in Toruń, Poland

Now
65 °F

Mild.


Feels Like: 65 °F
Forecast: 49 / 63 °F
Wind: 3 mph from Southeast

Location: Plock

Current Time: May 3, 2016 at 2:39:23 PM

Latest Report: May 3, 2016 at 1:00 PM


Visibility: 19 mi

Pressure: 29.99 "Hg

Humidity: 56%

Dew Point: 49 °F

Location of ToruńLocation

Historic Weather in Toruń — Graph

°F

Toruń Temperature Yesterday

Maximum temperature yesterday: 65 °F (at 6:00 PM)
Minimum temperature yesterday: 47 °F (at 6:00 AM)
Average temperature yesterday: 56 °F

High & Low Weather Summary for the Past Weeks

 TemperatureHumidityPressure
High65 °F (May 3, 1:00 PM)97% (May 1, 7:00 AM)30.27 "Hg (May 1, 7:00 AM)
Low29 °F (Apr 26, 5:00 AM)28% (Apr 26, 4:00 PM)29.57 "Hg (Apr 26, 6:00 PM)
Average49 °F58%30.00 "Hg
* Reported Apr 18 1:00 PM — May 3 1:00 PM, Toruń, Weather by CustomWeather, © 2016

Note: Actual official high and low records may vary slightly from our data, if they occured in-between our weather recording intervals... More about our weather records

Advertising

Toruń Weather History for the Previous 24 Hours

Scroll right to see more
 ConditionsComfort  
Time TempWeatherWind HumidityBarometerVisibility
1:00 PM
Tue, May 3
65 °FMild.3 mph56%29.99 "Hg19 mi
12:00 PM64 °FMild.3 mph59%30.01 "Hg19 mi
11:00 AM62 °FCool.3 mph62%30.03 "Hg19 mi
10:00 AM60 °FCool.3 mph72%30.03 "Hg16 mi
8:00 AM52 °FCool.2 mph85%30.05 "Hg9 mi
7:00 AM49 °FCool.1 mph86%30.06 "Hg7 mi
6:00 AM46 °FFog.No wind89%30.05 "Hg5 mi
5:00 AM46 °FFog.5 mph89%30.05 "Hg6 mi
2:00 AM44 °FFog.1 mph90%30.09 "Hg6 mi
1:00 AM48 °FCool.1 mph80%30.11 "Hg7 mi
12:00 AM52 °FCool.3 mph77%30.11 "Hg13 mi
11:00 PM
Mon, May 2
52 °FCool.3 mph68%30.11 "Hg7 mi
10:00 PM49 °FCool.2 mph73%30.12 "Hg6 mi
9:00 PM52 °FCool.2 mph66%30.12 "Hg9 mi
8:00 PM58 °FRefreshingly cool.1 mph50%30.11 "Hg22 mi
7:00 PM61 °FRefreshingly cool.3 mph46%30.11 "Hg22 mi
6:00 PM65 °FMild.2 mph41%30.12 "Hg22 mi
5:00 PM63 °FMild.3 mph46%30.14 "Hg25 mi
4:00 PM64 °FMild.3 mph47%30.16 "Hg25 mi
3:00 PM64 °FMild.3 mph48%30.17 "Hg17 mi
2:00 PM61 °FRefreshingly cool.6 mph54%30.19 "Hg22 mi
Weather by CustomWeather, © 2016

See weather overviewHow to use our weather pages